Regional Weather Roundup
Issued by NWS Grand Forks, ND

Home | Current Version | Previous Version | Graphics & Text | Print | Product List | Glossary On
Versions: 1 2 3 4 5 6 7 8 9 10 11 12 13 14 15 16 17 18 19 20 21 22 23 24 25 26 27 28 29 30 31 32 33 34 35 36 37 38 39 40 41 42 43 44 45 46 47 48 49 50
000
ASUS43 KFGF 192331
RWRFGF
PRAIRIE TO PINES  WEATHER ROUNDUP
NATIONAL WEATHER SERVICE EASTERN NORTH DAKOTA/GRAND FORKS ND
500 PM CST SUN FEB 19 2017

 **SATELLITE DATA USED TO AUGMENT SKY COVER AT AUTOMATED STATIONS**
 *****  WEATHER ACROSS EASTERN NORTH DAKOTA  *****

CITY           SKY/WX    TMP DP  RH WIND       PRES   REMARKS
GRAND FORKS    MOCLDY    44  33  65 E12       29.61F
GRAND FRKS AFB FAIR      42  36  81 SE12      29.61S
DEVILS LAKE    FAIR      39  36  89 CALM      29.59R
FARGO          FAIR      55  44  66 SE18G26   29.61S
WAHPETON ARPT  FAIR      52  45  76 SE17G24   29.64S
$$

 ***** WEATHER ACROSS CENTRAL AND WESTERN NORTH DAKOTA  *****

CITY           SKY/WX    TMP DP  RH WIND       PRES   REMARKS
BISMARCK       FAIR      40  36  86 E10       29.49F
MINOT          FAIR      38  34  85 E8        29.50F
JAMESTOWN      FAIR      47  43  86 SE6       29.55R
MINOT AFB      FAIR      35  33  90 E12       29.49S
GARRISON         N/A     40  34  79 E7        29.47F
WILLISTON      FAIR      39  32  76 CALM      29.49R
DICKINSON      FAIR      52  37  56 SE3       29.42F
HETTINGER      FAIR      59  34  39 S6        29.45R
$$

 *****  OTHER AIRPORT OBSERVATIONS IN OUR AREA  *****

CITY           SKY/WX    TMP DP  RH WIND       PRES   REMARKS
WALHALLA       NOT AVBL
GRAFTON AIRPOR FAIR      37  34  87 E10       29.64F
VALLEY CITY AR FAIR      48  48 100 SE13G21   29.59R
CANDO          NOT AVBL
CAVALIER APRT  FAIR      37  32  81 SE8       29.63F
GWINNER        FAIR      54  48  82 SE13      29.60R
SHEYENNE NWR     N/A     56  48  74 SE14      29.95S
ROLLA          CLOUDY    34  34 100 E13       29.58F WCI  25
 ***** THE ABOVE OBSERVATIONS ARE NON NWS ARE NOT QUALITY
       CONTROLLED AND MAY MIS-REPORT RAIN FOR SNOW...
$$

  *****  WEATHER ACROSS NORTHERN MINNESOTA  *****

CITY           SKY/WX    TMP DP  RH WIND       PRES   REMARKS
FLAG ISLAND    FAIR      43  28  56 E12G17    29.80F
WARROAD        FAIR      39  34  81 E13       29.77F
ROSEAU         FAIR      41  34  75 E14       29.73F
HALLOCK        FAIR      43  34  70 E18       29.65R
THF RVR FALLS  NOT AVBL
BAUDETTE       FAIR      41  30  65 E15       29.80F
WASKISH        FAIR      48  30  49 E12       29.78F
CROOKSTON      FAIR      46  37  71 SE15      29.64F
STEPHEN NDAWN    N/A     41  34  75 E13         N/A
GREENBUSH NDAW   N/A     39  32  75 E10         N/A
$$
  *****  WEATHER ACROSS CENTRAL AND WEST MINNESOTA  *****

CITY           SKY/WX    TMP DP  RH WIND       PRES   REMARKS
FOSSTON        FAIR      46  34  61 SE17G24   29.69S
BEMIDJI        FAIR      45  32  60 SE17      29.75F
PARK RAPIDS    FAIR      48  32  53 E10       29.75F
ELBOW LAKE     FAIR      52  46  79 SE15G23   29.68S
WADENA         FAIR      48  37  66 SE13      29.73F
DETROIT LAKES  FAIR      50  37  62 SE20G25   29.69F
MOORHEAD       FAIR      54  45  71 SE17G25   29.63S
FERGUS FALLS   FAIR      52  45  76 SE16      29.70S
MORRIS MN      FAIR      54  48  82 SE21G29   29.67R
STAPLES        FAIR      50  36  57 SE6       29.77F
$$
  *****  WEATHER ELSEWHERE ACROSS MINNESOTA  *****

CITY           SKY/WX    TMP DP  RH WIND       PRES   REMARKS
DULUTH         FAIR      40  30  67 E16       29.94R
INTRNTL FALLS  FAIR      43  30  60 E10       29.86F
ELY            FAIR      41  28  60 SE8       29.93F
CLOQUET        FAIR      39  28  65 E12G17    29.93S
WHEATON        FAIR      54  48  82 SE23      29.65R
BRAINERD       FAIR      51  34  52 SE12G21   29.81F
HIBBING        FAIR      43  28  55 SE10      29.89S
ALEXANDRIA     FAIR      52  44  74 SE21G26   29.73F
SAINT CLOUD    FAIR      55  42  61 SE12      29.81F
MINNEAPOLIS    CLOUDY    56  40  55 SE14      29.88S
$$

  *****  WEATHER ACROSS SOUTH DAKOTA  *****

CITY           SKY/WX    TMP DP  RH WIND       PRES   REMARKS
SIOUX FALLS    CLOUDY    61  51  70 S16       29.69F
BROOKINGS      FAIR      59  49  69 S20G25    29.66R
WATERTOWN      FAIR      54  47  77 S16G25    29.62F
HURON          FAIR      61  50  67 S15G28    29.58S
SISSETON         N/A     57  52  83 S15       29.61R
ABERDEEN       FAIR      56  47  71 S12       29.56S
MITCHELL       FAIR      64  51  62 S25G33    29.60S
PIERRE         FAIR      64  39  39 SE9       29.50R
MOBRIDGE       FAIR      46  37  71 SE13      29.46F
RAPID CITY     FAIR      66  32  28 SW10      29.47S
$$

  *****  SOME WEATHER IN NEARBY STATES *****

CITY           SKY/WX    TMP DP  RH WIND       PRES   REMARKS
GLASGOW MT     CLOUDY    34  32  92 SE6       29.49R FOG
GREAT FALLS MT FAIR      51  20  29 SW18      29.50R
CHEYENNE WY    FAIR      55  23  28 S3        29.60S
SCOTTSBLUFF NE FAIR      57  34  41 E3        29.56F
OMAHA NE       PTSUNNY   71  51  49 S18G25    29.79S
DES MOINES IA  CLOUDY    70  46  42 S14       29.87F
DAVENPORT IA   FAIR      66  40  38 S10       29.98S
CHICAGO IL     FAIR      62  31  31 E8        30.05R
EAU CLAIRE WI  FAIR      56  31  38 SE6       29.94F
LA CROSSE WI   FAIR      61  37  41 SE7       29.95S
$$

  *****  SOME NATIONAL WEATHER *****

CITY           SKY/WX    TMP DP  RH WIND       PRES   REMARKS
LA GUARDIA NY  FAIR      60  31  33 NW9       29.86R
RALEIGH NC     FAIR      67  42  40 VRB5      30.00R
ATLANTA GA     FAIR      66  47  50 NW12      30.10R
NEW ORLEANS LA PTSUNNY   75  65  70 SE12      30.03S
OKLAHOMA CITY  CLOUDY    66  61  84 SE15G24   29.84R
ALBUQUERQUE NM FAIR      50  30  46 S18       29.85R
SALT LAKE CITY PTSUNNY   52  39  61 NE3       29.74R
LOS ANGELES CA PTSUNNY   58  50  75 W10       29.99R
BOISE ID       FAIR      50  36  58 NW5       29.67S
SEATTLE WA     CLOUDY    46  40  79 S12       29.49S
$$

*** WEATHER ACROSS MANITOBA...SASKATCHEWAN AND ONTARIO ***
                ***ONTARIO***

CITY           SKY/WX    TMP DP  RH WIND       PRES   REMARKS
GERALDTON      MOCLDY    32  25  74 E5        30.11R
THUNDER BAY    MOCLDY    36  30  80 NE8       30.07S
SIOUX LOOKOUT  MOCLDY    41  27  56 E5        29.96F
TORONTO        PTCLDY    45  32  61 N8        30.02R
BIG TROUT LK   CLOUDY    25  21  86 SE7       30.09R WCI  17
PICKLE LAKE    CLOUDY    30  23  74 E9        30.04F WCI  22
DRYDEN         MOCLDY    41  28  60 E5        29.92F
KENORA         MOCLDY    39  30  70 E13       29.85S
$$
                *** MANITOBA***

CITY           SKY/WX    TMP DP  RH WIND       PRES   REMARKS
BRANDON        MOCLDY    32  30  93 E28       29.61F WCI  18
DAUPHIN        CLOUDY    32  28  86 E13G20    29.72F WCI  22
ISLAND LAKE    CLOUDY    25  18  74 E5        30.01S WCI  19
PILOT MOUND      N/A     36  32  87 E15G21      N/A
THE PAS        CLOUDY    28  19  69 E10G25    29.84S WCI  19
THOMPSON       CLOUDY    21  18  86 E3        30.00F
WINNIPEG       MOCLDY    39  30  70 E16G22    29.70F
LYNN LAKE      CLOUDY    23  23 100 E6        29.92S WCI  16
CHURCHILL      CLOUDY    12   9  85 S7        30.11R WCI   2
GILLAM         CLOUDY    19  14  79 VRB2      30.08R
$$
                ***SASKATCHEWAN***

CITY           SKY/WX    TMP DP  RH WIND       PRES   REMARKS
ESTEVAN        CLOUDY    32  32 100 E16       29.52R FOG     WCI  21
KINDERSLEY     LGT RAIN  36  36 100 S9        29.42R
LLOYDMINSTER   CLOUDY    34  32  93 SE12G18   29.44R
PRINCE ALBERT  PTSUNNY   34  28  80 E16G26    29.61R WCI  23
REGINA         CLOUDY    34  30  86 SE17      29.53R WCI  23
YORKTON        CLOUDY    30  28  93 E18G24    29.62S WCI  18
N. BATTLEFORD  LGT RAIN  34  34 100 E20G25    29.49S WCI  22
LA RONGE       CLOUDY    30  25  80 E14G24    29.70F WCI  20
SASKATOON      CLOUDY    36  32  87 SE14G22   29.53R
SWIFT CURRENT  PTSUNNY   43  39  87 SW7       29.43R
$$
NOTE: THESE ARE AUTOMATED STATIONS WITH LIMITED QUALITY CONTROL
      "FAIR" INDICATES FEW OR NO CLOUDS BELOW 12,000 FEET WITH NO
      SIGNIFICANT WEATHER AND/OR OBSTRUCTIONS TO VISIBILITY.
      SKY/WX - SKY CONDITION AND SIGNIFICANT WEATHER.
      TMP - AIR TEMPERATURE.    DP   - DEWPOINT TEMPERATURE.
      RH  - RELATIVE HUMIDITY.  PRES - PRESSURE.
      HX  - HEAT INDEX.         WCI  - WIND CHILL INDEX.
$




USA.gov is the U.S. government's official web portal to all federal, state and local government web resources and services.